Satellite: SO-50
Catalog number: 27607
Epoch time:      12109.53453852
Element set:     739
Inclination:      064.5568 deg
RA of node:       116.3533 deg
Eccentricity:    0.0084764
Arg of perigee:   260.4080 deg
Mean anomaly:     098.7441 deg
Mean motion:   14.72310573 rev/day
Decay rate:       5.56e-06 rev/day^2
Epoch rev:           50118
Checksum:              306

Satellite: CO-55
Catalog number: 27844
Epoch time:      12109.56440754
Element set:     354
Inclination:      098.7042 deg
RA of node:       118.8099 deg
Eccentricity:    0.0010555
Arg of perigee:   037.5865 deg
Mean anomaly:     322.6066 deg
Mean motion:   14.20995006 rev/day
Decay rate:       2.08e-06 rev/day^2
Epoch rev:           45642
Checksum:              313

Satellite: CO-57
Catalog number: 27848
Epoch time:      12109.55769599
Element set:     305
Inclination:      098.7119 deg
RA of node:       118.1092 deg
Eccentricity:    0.0010633
Arg of perigee:   043.5157 deg
Mean anomaly:     316.6859 deg
Mean motion:   14.20750099 rev/day
Decay rate:       1.74e-06 rev/day^2
Epoch rev:           45636
Checksum:              333

Satellite: AO-51
Catalog number: 28375
Epoch time:      12110.40350743
Element set:     244
Inclination:      098.1415 deg
RA of node:       078.4338 deg
Eccentricity:    0.0082570
Arg of perigee:   218.9219 deg
Mean anomaly:     140.6003 deg
Mean motion:   14.40927718 rev/day
Decay rate:       1.75e-06 rev/day^2
Epoch rev:           41030
Checksum:              275

Satellite: CP3
Catalog number: 31129
Epoch time:      12110.48070652
Element set:     144
Inclination:      097.8806 deg
RA of node:       121.7127 deg
Eccentricity:    0.0099701
Arg of perigee:   306.2668 deg
Mean anomaly:     052.9363 deg
Mean motion:   14.52995025 rev/day
Decay rate:       6.54e-06 rev/day^2
Epoch rev:           26545
Checksum:              297

Satellite: CO-65
Catalog number: 32785
Epoch time:      12109.19093050
Element set:    0285
Inclination:      097.8057 deg
RA of node:       171.6513 deg
Eccentricity:    0.0013539
Arg of perigee:   257.2832 deg
Mean anomaly:     102.6867 deg
Mean motion:   14.82830206 rev/day
Decay rate:       6.79e-06 rev/day^2
Epoch rev:           21487
Checksum:              319

Satellite: PRISM
Catalog number: 33493
Epoch time:      12110.58981340
Element set:     621
Inclination:      098.1621 deg
RA of node:       249.7985 deg
Eccentricity:    0.0020021
Arg of perigee:   125.3434 deg
Mean anomaly:     234.9656 deg
Mean motion:   14.83567152 rev/day
Decay rate:      2.810e-05 rev/day^2
Epoch rev:           17506
Checksum:              287

Satellite: SOHLA-1
Catalog number: 33496
Epoch time:      12110.90450310
Element set:     705
Inclination:      098.0983 deg
RA of node:       223.0468 deg
Eccentricity:    0.0005875
Arg of perigee:   219.6346 deg
Mean anomaly:     140.4431 deg
Mean motion:   14.69922680 rev/day
Decay rate:       3.76e-06 rev/day^2
Epoch rev:           17368
Checksum:              298

Satellite: SO-67
Catalog number: 35870
Epoch time:      12110.54185906
Element set:     879
Inclination:      097.2392 deg
RA of node:       148.3535 deg
Eccentricity:    0.0003270
Arg of perigee:   051.8538 deg
Mean anomaly:     099.1245 deg
Mean motion:   15.23306610 rev/day
Decay rate:      3.858e-05 rev/day^2
Epoch rev:           14368
Checksum:              318

Satellite: TISAT-1
Catalog number: 36799
Epoch time:      12110.59508675
Element set:     897
Inclination:      098.0648 deg
RA of node:       186.5028 deg
Eccentricity:    0.0014958
Arg of perigee:   008.4069 deg
Mean anomaly:     351.7402 deg
Mean motion:   14.81740985 rev/day
Decay rate:      1.570e-05 rev/day^2
Epoch rev:            9581
Checksum:              342

Satellite: STUDSAT
Catalog number: 36801
Epoch time:      12109.93997813
Element set:    0378
Inclination:      098.0723 deg
RA of node:       186.3100 deg
Eccentricity:    0.0012990
Arg of perigee:   356.5669 deg
Mean anomaly:     003.5453 deg
Mean motion:   14.83705020 rev/day
Decay rate:      4.140e-05 rev/day^2
Epoch rev:           09573
Checksum:              298

Satellite: FO-69
Catalog number: 37227
Epoch time:      12105.44363759
Element set:    0152
Inclination:      071.9681 deg
RA of node:       092.6102 deg
Eccentricity:    0.0015230
Arg of perigee:   078.5207 deg
Mean anomaly:     281.7702 deg
Mean motion:   14.76998202 rev/day
Decay rate:       4.58e-06 rev/day^2
Epoch rev:           02668
Checksum:              310

Satellite: FO-70
Catalog number: 37380
Epoch time:      12105.43852282
Element set:    0160
Inclination:      071.9714 deg
RA of node:       093.1005 deg
Eccentricity:    0.0015742
Arg of perigee:   075.4484 deg
Mean anomaly:     284.8453 deg
Mean motion:   14.76752860 rev/day
Decay rate:       4.13e-06 rev/day^2
Epoch rev:           02657
Checksum:              294

Satellite: ALMASAT-1
Catalog number: 38078
Epoch time:      12110.45470852
Element set:     136
Inclination:      069.4884 deg
RA of node:       090.1278 deg
Eccentricity:    0.0767796
Arg of perigee:   322.0766 deg
Mean anomaly:     032.8592 deg
Mean motion:   14.07177861 rev/day
Decay rate:     2.9739e-04 rev/day^2
Epoch rev:             928
Checksum:              339

